KC3BAN-13 Weather Reports


Display with metric or nautical units.
time (UTC)temp
F
wind
direction
speed
MPH
gust
MPH
rain 1hr
in
rain 24hr
in
rain mn
in
humidity
%
barometer
mb
20260831211020 84 61 0.0 0.0 0.00 0.00 0.00 76 1010.7
20260831210520 84 61 0.0 0.0 0.00 0.00 0.00 75 1010.7
20260831210020 84 61 0.0 0.0 0.00 0.00 0.00 75 1010.8
20260831205520 85 61 0.0 0.0 0.00 0.00 0.00 76 1010.8
20260831205017 85 62 0.0 0.0 0.00 0.00 0.00 75 1010.8
20260831204517 85 62 0.0 0.0 0.00 0.00 0.00 76 1010.7
20260831204017 85 61 0.0 0.0 0.00 0.00 0.00 77 1010.8
20260831203742 85 61 0.0 1.0 0.00 0.00 0.00 77 1010.7
20260831203011 85 61 0.0 1.0 0.00 0.00 0.00 77 1010.7
20260831202504 85 62 0.0 1.0 0.00 0.00 0.00 76 1010.7
20260831202000 85 61 0.0 1.0 0.00 0.00 0.00 75 1010.7
20260831201452 85 61 0.0 0.0 0.00 0.00 0.00 76 1010.7
20260831200947 85 61 0.0 0.0 0.00 0.00 0.00 76 1010.8
20260831200441 85 62 0.0 0.0 0.00 0.00 0.00 76 1010.8
20260831195935 85 61 0.0 0.0 0.00 0.00 0.00 75 1010.8
20260831195653 85 61 0.0 2.0 0.00 0.00 0.00 75 1010.8
20260831194935 85 61 0.0 2.0 0.00 0.00 0.00 74 1010.9
20260831194435 86 49 0.0 2.0 0.00 0.00 0.00 75 1010.9
20260831193936 86 49 0.0 2.0 0.00 0.00 0.00 73 1011.0
20260831193436 87 225 0.0 1.0 0.00 0.00 0.00 73 1011.1
20260831192938 87 225 0.0 1.0 0.00 0.00 0.00 74 1011.1
20260831192435 87 225 0.0 2.0 0.00 0.00 0.00 74 1011.2
20260831191935 86 238 1.0 5.0 0.00 0.00 0.00 76 1011.2
20260831191656 86 59 0.0 5.0 0.00 0.00 0.00 75 1011.2
20260831191155 86 100 0.0 3.0 0.00 0.00 0.00 76 1011.3
20260831190435 86 100 0.0 3.0 0.00 0.00 0.00 74 1011.3
20260831185935 86 231 0.0 0.0 0.00 0.00 0.00 77 1011.4
20260831185435 85 231 0.0 2.0 0.00 0.00 0.00 77 1011.5
20260831184933 85 231 0.0 2.0 0.00 0.00 0.00 77 1011.4
20260831184433 86 4 0.0 1.0 0.00 0.00 0.00 76 1011.4
20260831183933 86 6 0.0 1.0 0.00 0.00 0.00 74 1011.4
20260831183653 86 6 0.0 1.0 0.00 0.00 0.00 73 1011.5
20260831182929 86 6 0.0 1.0 0.00 0.00 0.00 70 1011.5
20260831182423 87 5 0.0 2.0 0.00 0.00 0.00 71 1011.5
20260831181917 87 86 0.0 2.0 0.00 0.00 0.00 69 1011.4
20260831181412 88 146 0.0 2.0 0.00 0.00 0.00 70 1011.4
20260831180905 87 210 0.0 2.0 0.00 0.00 0.00 69 1011.4
20260831180359 87 64 0.0 2.0 0.00 0.00 0.00 69 1011.4
20260831175853 87 239 0.0 2.0 0.00 0.00 0.00 70 1011.4
20260831175347 87 130 0.0 1.0 0.00 0.00 0.00 71 1011.5
20260831174842 86 130 1.0 2.0 0.00 0.00 0.00 71 1011.5
20260831174335 86 130 1.0 2.0 0.00 0.00 0.00 75 1011.6
20260831173829 85 258 1.0 4.0 0.00 0.00 0.00 76 1011.8
20260831173323 85 248 0.0 4.0 0.00 0.00 0.00 77 1011.9
20260831172817 84 66 1.0 3.0 0.00 0.00 0.00 79 1011.9
20260831172312 84 66 1.0 4.0 0.00 0.00 0.00 78 1011.9
20260831171806 83 56 0.0 4.0 0.00 0.00 0.00 79 1011.9
20260831171259 83 76 0.0 1.0 0.00 0.00 0.00 78 1011.9
20260831170753 83 76 0.0 2.0 0.00 0.00 0.00 78 1012.0
20260831170513 84 76 0.0 4.0 0.00 0.00 0.00 78 1012.1
20260831165742 84 56 0.0 4.0 0.00 0.00 0.00 78 1012.1
20260831165457 84 241 0.0 3.0 0.00 0.00 0.00 80 1012.1
20260831164729 83 68 1.0 3.0 0.00 0.00 0.00 79 1012.2
20260831164223 83 226 0.0 2.0 0.00 0.00 0.00 81 1012.2
20260831163941 82 226 1.0 4.0 0.00 0.00 0.00 81 1012.2
20260831163212 82 357 1.0 6.0 0.00 0.00 0.00 81 1012.3
20260831162705 82 53 1.0 6.0 0.00 0.00 0.00 82 1012.2
20260831162159 82 238 1.0 4.0 0.00 0.00 0.00 82 1012.3
20260831161653 82 51 1.0 3.0 0.00 0.00 0.00 82 1012.4
20260831161408 82 85 1.0 4.0 0.00 0.00 0.00 83 1012.3
20260831160642 81 82 1.0 4.0 0.00 0.00 0.00 83 1012.3
20260831160135 82 59 1.0 4.0 0.00 0.00 0.00 83 1012.2
20260831155854 81 64 1.0 3.0 0.00 0.00 0.00 83 1012.2
20260831155123 81 43 1.0 3.0 0.00 0.00 0.00 84 1012.2
20260831154617 81 67 1.0 5.0 0.00 0.00 0.00 84 1012.2
20260831154113 80 47 1.0 5.0 0.00 0.00 0.00 84 1012.2
20260831153825 80 68 1.0 4.0 0.00 0.00 0.00 83 1012.2
20260831153325 80 39 1.0 4.0 0.00 0.00 0.00 83 1012.3
20260831152553 80 356 1.0 5.0 0.00 0.00 0.00 84 1012.2
20260831152047 80 89 2.0 5.0 0.00 0.00 0.00 84 1012.2
20260831151543 80 58 2.0 7.0 0.00 0.00 0.00 84 1012.2
20260831151035 80 62 3.0 7.0 0.00 0.00 0.00 84 1012.3
20260831150529 80 63 2.0 6.0 0.00 0.00 0.00 84 1012.3
20260831150023 80 54 2.0 6.0 0.00 0.00 0.00 84 1012.2
20260831145517 80 40 2.0 6.0 0.00 0.00 0.00 84 1012.1
20260831145232 80 58 1.0 5.0 0.00 0.00 0.00 84 1012.2
20260831144505 80 60 1.0 5.0 0.00 0.00 0.00 84 1012.1
20260831144216 80 67 1.0 5.0 0.00 0.00 0.00 84 1012.0
20260831143723 80 88 1.0 5.0 0.00 0.00 0.00 84 1012.1
20260831142948 79 58 2.0 5.0 0.00 0.00 0.00 84 1012.1
20260831142443 79 47 2.0 5.0 0.00 0.00 0.00 83 1012.1
20260831142155 78 86 2.0 5.0 0.00 0.00 0.00 84 1012.2
20260831141430 78 60 2.0 5.0 0.00 0.00 0.00 84 1012.3
20260831140923 78 60 1.0 5.0 0.00 0.00 0.00 83 1012.3
20260831140418 79 51 1.0 5.0 0.00 0.00 0.00 81 1012.3
20260831135913 78 93 1.0 5.0 0.00 0.00 0.00 79 1012.1
20260831135405 78 359 1.0 4.0 0.00 0.00 0.00 77 1012.1
20260831134900 78 97 1.0 7.0 0.00 0.00 0.00 74 1012.1
20260831134620 78 300 1.0 6.0 0.00 0.00 0.00 72 1012.0
20260831133848 77 102 1.0 5.0 0.00 0.00 0.00 71 1012.1
20260831133343 77 103 2.0 5.0 0.00 0.00 0.00 71 1012.2
20260831132835 76 39 1.0 5.0 0.00 0.00 0.00 72 1012.1
20260831132329 76 82 1.0 2.0 0.00 0.00 0.00 72 1012.1
20260831131823 75 64 1.0 3.0 0.00 0.00 0.00 72 1012.1
20260831130812 75 77 0.0 1.0 0.00 0.00 0.00 73 1012.2
20260831130305 75 77 0.0 2.0 0.00 0.00 0.00 73 1012.1
20260831130020 75 77 0.0 2.0 0.00 0.00 0.00 73 1012.1
20260831124748 74 101 0.0 1.0 0.00 0.00 0.00 73 1012.1
20260831124242 74 101 0.0 4.0 0.00 0.00 0.00 74 1012.0
20260831123735 74 115 0.0 4.0 0.00 0.00 0.00 74 1012.1
20260831123455 74 284 0.0 1.0 0.00 0.00 0.00 74 1012.1
20260831122735 73 284 0.0 0.0 0.00 0.00 0.00 74 1012.2
20260831121730 73 283 0.0 1.0 0.00 0.00 0.00 74 1012.0
20260831121451 72 285 0.0 0.0 0.00 0.00 0.00 75 1012.0
20260831120730 72 179 0.0 0.0 0.00 0.00 0.00 75 1012.0
20260831120230 72 179 0.0 0.0 0.00 0.00 0.00 75 1012.0
20260831115727 71 179 0.0 0.0 0.00 0.00 0.00 74 1012.0
20260831115443 71 179 0.0 0.0 0.00 0.00 0.00 74 1011.9
20260831114725 71 179 0.0 0.0 0.00 0.00 0.00 74 1011.8
20260831114225 70 179 0.0 0.0 0.00 0.00 0.00 74 1011.7
20260831113725 70 179 0.0 0.0 0.00 0.00 0.00 74 1011.5
20260831113220 70 179 0.0 0.0 0.00 0.00 0.00 74 1011.4
20260831112720 70 179 0.0 0.0 0.00 0.00 0.00 74 1011.3
20260831112440 69 179 0.0 0.0 0.00 0.00 0.00 74 1011.3
20260831111940 69 179 0.0 0.0 0.00 0.00 0.00 74 1011.5
20260831111217 69 179 0.0 0.0 0.00 0.00 0.00 74 1011.5
20260831110431 69 179 0.0 0.0 0.00 0.00 0.00 74 1011.4
20260831105713 69 179 0.0 0.0 0.00 0.00 0.00 74 1011.3
20260831105432 69 179 0.0 0.0 0.00 0.00 0.00 74 1011.1
20260831104700 69 179 0.0 0.0 0.00 0.00 0.00 74 1011.0
20260831104154 69 179 0.0 0.0 0.00 0.00 0.00 74 1010.9
20260831103650 69 179 0.0 0.0 0.00 0.00 0.00 74 1010.9
20260831103143 69 179 0.0 0.0 0.00 0.00 0.00 74 1011.0
20260831102637 69 179 0.0 0.0 0.00 0.00 0.00 74 1011.0
20260831102131 69 179 0.0 0.0 0.00 0.00 0.00 74 1011.0
20260831101624 69 179 0.0 0.0 0.00 0.00 0.00 74 1010.9
20260831101121 69 179 0.0 0.0 0.00 0.00 0.00 74 1010.8
20260831100612 69 179 0.0 0.0 0.00 0.00 0.00 74 1010.8
20260831100107 69 179 0.0 0.0 0.00 0.00 0.00 74 1010.9
20260831095601 69 179 0.0 0.0 0.00 0.00 0.00 74 1010.8
20260831095054 69 179 0.0 0.0 0.00 0.00 0.00 74 1010.9
20260831094550 69 179 0.0 0.0 0.00 0.00 0.00 74 1010.8
20260831094043 69 179 0.0 0.0 0.00 0.00 0.00 74 1010.9
20260831093536 69 179 0.0 0.0 0.00 0.00 0.00 74 1010.9
20260831093031 69 179 0.0 0.0 0.00 0.00 0.00 74 1010.9
20260831092524 69 179 0.0 0.0 0.00 0.00 0.00 74 1010.8
20260831092247 69 179 0.0 0.0 0.00 0.00 0.00 74 1010.8
20260831091513 70 179 0.0 0.0 0.00 0.00 0.00 74 1010.8
20260831091007 70 179 0.0 0.0 0.00 0.00 0.00 74 1010.7
20260831090507 70 179 0.0 0.0 0.00 0.00 0.00 74 1010.8
20260831090006 70 179 0.0 0.0 0.00 0.00 0.00 74 1010.9
20260831085505 70 179 0.0 0.0 0.00 0.00 0.00 74 1010.9
20260831085005 70 179 0.0 0.0 0.00 0.00 0.00 74 1011.0
20260831084504 70 179 0.0 0.0 0.00 0.00 0.00 74 1010.8
20260831084230 70 179 0.0 0.0 0.00 0.00 0.00 74 1010.7
20260831083503 70 179 0.0 0.0 0.00 0.00 0.00 74 1010.8
20260831083001 69 179 0.0 0.0 0.00 0.00 0.00 74 1011.0
20260831082500 69 179 0.0 0.0 0.00 0.00 0.00 74 1011.0
20260831082000 69 179 0.0 0.0 0.00 0.00 0.00 74 1010.8
20260831081500 69 179 0.0 0.0 0.00 0.00 0.00 74 1010.8
20260831081000 69 179 0.0 0.0 0.00 0.00 0.00 74 1010.8
20260831080456 69 179 0.0 0.0 0.00 0.00 0.00 74 1010.8
20260831075957 69 179 0.0 0.0 0.00 0.00 0.00 74 1010.8
20260831075453 69 179 0.0 0.0 0.00 0.00 0.00 74 1010.8
20260831074952 69 179 0.0 0.0 0.00 0.00 0.00 74 1010.8
20260831074453 69 179 0.0 0.0 0.00 0.00 0.00 74 1010.8
20260831073953 69 179 0.0 0.0 0.00 0.00 0.00 74 1010.7
20260831073713 69 179 0.0 0.0 0.00 0.00 0.00 74 1010.7
20260831072952 69 179 0.0 0.0 0.00 0.00 0.00 74 1010.7
20260831072453 69 179 0.0 0.0 0.00 0.00 0.00 74 1010.7
20260831071453 69 179 0.0 0.0 0.00 0.00 0.00 74 1010.8
20260831070950 69 179 0.0 0.0 0.00 0.00 0.00 74 1010.8
20260831070713 69 179 0.0 0.0 0.00 0.00 0.00 74 1010.8
20260831065949 69 179 0.0 0.0 0.00 0.00 0.00 74 1010.8
20260831065450 69 179 0.0 0.0 0.00 0.00 0.00 74 1010.9
20260831064950 70 179 0.0 0.0 0.00 0.00 0.00 74 1010.9
20260831064450 70 179 0.0 0.0 0.00 0.00 0.00 74 1010.9
20260831063950 70 179 0.0 0.0 0.00 0.00 0.00 73 1010.9
20260831063720 70 179 0.0 0.0 0.00 0.00 0.00 73 1010.9
20260831062950 70 179 0.0 0.0 0.00 0.00 0.00 74 1011.0
20260831062703 70 179 0.0 0.0 0.00 0.00 0.00 74 1011.0
20260831061944 70 179 0.0 0.0 0.00 0.00 0.00 74 1011.0
20260831061444 70 179 0.0 0.0 0.00 0.00 0.00 74 1011.1
20260831060945 70 179 0.0 0.0 0.00 0.00 0.00 73 1011.2
20260831060445 70 179 0.0 0.0 0.00 0.00 0.00 73 1011.2
20260831060210 70 179 0.0 0.0 0.00 0.00 0.00 74 1011.2
20260831055444 70 179 0.0 0.0 0.00 0.00 0.00 74 1011.2
20260831054944 70 179 0.0 0.0 0.00 0.00 0.00 74 1011.2
20260831054444 70 179 0.0 0.0 0.00 0.00 0.00 73 1011.2
20260831053940 70 179 0.0 0.0 0.00 0.00 0.00 74 1011.2
20260831053441 70 179 0.0 0.0 0.00 0.00 0.00 74 1011.2
20260831052940 70 179 0.0 0.0 0.00 0.00 0.00 74 1011.2
20260831052441 70 179 0.0 0.0 0.00 0.00 0.00 74 1011.2
20260831051941 70 179 0.0 0.0 0.00 0.00 0.00 74 1011.2
20260831051441 71 179 0.0 0.0 0.00 0.00 0.00 74 1011.2
20260831050941 71 179 0.0 0.0 0.00 0.00 0.00 74 1011.2
20260831050440 71 179 0.0 0.0 0.00 0.00 0.00 74 1011.2
20260831045938 71 179 0.0 0.0 0.00 0.00 0.00 74 1011.2
20260831045442 71 179 0.0 0.0 0.00 0.00 0.00 74 1011.1
20260831044934 71 179 0.0 0.0 0.00 0.00 0.00 73 1011.2
20260831044428 71 179 0.0 0.0 0.00 0.00 0.00 74 1011.3
20260831043424 71 179 0.0 0.0 0.00 0.00 0.00 74 1011.3
20260831042923 71 179 0.0 0.0 0.00 0.00 0.00 74 1011.3
20260831042420 71 179 0.0 0.0 0.00 0.00 0.00 74 1011.3
20260831041918 71 179 0.0 0.0 0.00 0.00 0.00 74 1011.4
20260831041418 71 179 0.0 0.0 0.00 0.00 0.00 75 1011.4
20260831040918 71 179 0.0 0.0 0.00 0.00 0.00 75 1011.4
20260831040643 71 179 0.0 0.0 0.00 0.00 0.00 75 1011.4
20260831035913 71 179 0.0 0.0 0.00 0.00 0.00 75 1011.4
20260831035414 72 179 0.0 0.0 0.00 0.00 0.00 75 1011.4
20260831035132 72 179 0.0 0.0 0.00 0.00 0.00 75 1011.4
20260831034412 72 179 0.0 0.0 0.00 0.00 0.00 75 1011.5
20260831033910 72 179 0.0 0.0 0.00 0.00 0.00 75 1011.5
20260831033410 72 179 0.0 0.0 0.00 0.00 0.00 76 1011.5
20260831032905 72 179 0.0 0.0 0.00 0.00 0.00 76 1011.5
20260831032404 73 179 0.0 0.0 0.00 0.00 0.00 76 1011.5
20260831031902 73 179 0.0 0.0 0.00 0.00 0.00 76 1011.5
20260831031401 73 179 0.0 0.0 0.00 0.00 0.00 76 1011.5
20260831030901 73 179 0.0 0.0 0.00 0.00 0.00 76 1011.5
20260831030400 73 179 0.0 0.0 0.00 0.00 0.00 76 1011.5
20260831025900 73 179 0.0 0.0 0.00 0.00 0.00 77 1011.6
20260831025354 73 179 0.0 0.0 0.00 0.00 0.00 77 1011.7
20260831024848 73 179 0.0 0.0 0.00 0.00 0.00 77 1011.7
20260831024342 74 179 0.0 0.0 0.00 0.00 0.00 78 1011.8
20260831023836 74 179 0.0 0.0 0.00 0.00 0.00 78 1011.7
20260831023559 74 179 0.0 0.0 0.00 0.00 0.00 78 1011.7
20260831023041 74 179 0.0 0.0 0.00 0.00 0.00 78 1011.9
20260831022318 74 179 0.0 0.0 0.00 0.00 0.00 78 1011.8
20260831021812 74 179 0.0 0.0 0.00 0.00 0.00 79 1011.9
20260831021535 74 179 0.0 0.0 0.00 0.00 0.00 80 1011.8
20260831020759 74 179 0.0 0.0 0.00 0.00 0.00 80 1011.7
20260831020253 74 179 0.0 0.0 0.00 0.00 0.00 80 1011.9
20260831015748 75 179 0.0 0.0 0.00 0.00 0.00 80 1011.7
20260831015242 75 179 0.0 0.0 0.00 0.00 0.00 81 1011.7
20260831015000 75 179 0.0 0.0 0.00 0.00 0.00 81 1011.6
20260831014230 75 179 0.0 2.0 0.00 0.00 0.00 82 1011.6
20260831013728 75 179 1.0 3.0 0.00 0.00 0.00 82 1011.7
20260831013228 75 179 1.0 4.0 0.00 0.00 0.00 82 1011.8
20260831012727 76 219 0.0 4.0 0.00 0.00 0.00 82 1011.9
20260831012228 76 167 1.0 3.0 0.00 0.00 0.00 82 1011.9
20260831011727 76 115 1.0 3.0 0.00 0.00 0.00 82 1011.8
20260831011228 77 226 0.0 2.0 0.00 0.00 0.00 81 1011.8
20260831010725 77 239 0.0 2.0 0.00 0.00 0.00 81 1012.0
20260831010226 77 164 0.0 0.0 0.00 0.00 0.00 81 1011.9
20260831005946 77 236 0.0 0.0 0.00 0.00 0.00 82 1011.7
20260831005223 77 236 0.0 0.0 0.00 0.00 0.00 82 1011.7
20260831004723 77 236 0.0 0.0 0.00 0.00 0.00 82 1011.7
20260831004222 77 236 0.0 0.0 0.00 0.00 0.00 83 1011.5
20260831003720 77 236 0.0 0.0 0.00 0.00 0.00 83 1011.5
20260831003220 77 236 0.0 0.0 0.00 0.00 0.00 83 1011.4
20260831002720 77 236 0.0 0.0 0.00 0.00 0.00 83 1011.5
20260831002216 77 236 0.0 0.0 0.00 0.00 0.00 84 1011.3
20260831001716 77 236 0.0 0.0 0.00 0.00 0.00 84 1011.2
20260831001215 77 236 0.0 0.0 0.00 0.00 0.00 84 1011.1
20260831000715 77 236 0.0 0.0 0.00 0.00 0.00 84 1011.2
20260831000440 78 236 0.0 0.0 0.00 0.00 0.00 84 1011.3
20260830235216 78 236 0.0 0.0 0.00 0.00 0.00 84 1011.1
20260830234715 78 236 0.0 0.0 0.00 0.00 0.00 83 1011.1
20260830234216 79 236 0.0 0.0 0.00 0.00 0.00 83 1011.1
20260830233711 79 236 0.0 0.0 0.00 0.00 0.00 82 1011.0
20260830233211 80 236 0.0 0.0 0.00 0.00 0.00 82 1011.1
20260830232712 80 236 0.0 0.0 0.00 0.00 0.00 80 1011.0
20260830232211 81 236 0.0 0.0 0.00 0.00 0.00 80 1011.1
20260830231712 82 236 0.0 0.0 0.00 0.00 0.00 79 1011.3
20260830231213 82 236 0.0 0.0 0.00 0.00 0.00 78 1011.3
20260830230713 83 236 0.0 0.0 0.00 0.00 0.00 77 1011.2
20260830230214 83 236 0.0 0.0 0.00 0.00 0.00 76 1011.4
20260830225714 84 236 0.0 0.0 0.00 0.00 0.00 74 1011.3
20260830225210 84 236 0.0 0.0 0.00 0.00 0.00 73 1011.3
20260830224710 85 236 0.0 2.0 0.00 0.00 0.00 72 1011.3
20260830224210 85 236 0.0 2.0 0.00 0.00 0.00 71 1011.2
20260830223707 86 228 0.0 2.0 0.00 0.00 0.00 71 1011.1
20260830223432 86 231 0.0 2.0 0.00 0.00 0.00 71 1011.0
20260830222707 86 205 0.0 1.0 0.00 0.00 0.00 71 1011.0
20260830222207 86 215 0.0 0.0 0.00 0.00 0.00 72 1011.0
20260830221707 86 215 0.0 1.0 0.00 0.00 0.00 71 1010.9
20260830221208 86 215 0.0 2.0 0.00 0.00 0.00 69 1010.9
20260830220707 86 217 0.0 2.0 0.00 0.00 0.00 68 1010.9
20260830220207 87 213 1.0 3.0 0.00 0.00 0.00 68 1011.0
20260830215707 87 236 1.0 3.0 0.00 0.00 0.00 65 1010.9
20260830215207 88 201 1.0 3.0 0.00 0.00 0.00 66 1010.9
20260830214707 88 222 0.0 3.0 0.00 0.00 0.00 65 1010.8
20260830214207 88 186 0.0 3.0 0.00 0.00 0.00 65 1010.9
20260830213707 88 172 0.0 2.0 0.00 0.00 0.00 63 1010.8
20260830213433 88 221 0.0 3.0 0.00 0.00 0.00 66 1010.8
20260830212707 87 176 1.0 4.0 0.00 0.00 0.00 64 1010.8
20260830212425 87 136 1.0 4.0 0.00 0.00 0.00 65 1010.8
20260830211654 87 236 1.0 5.0 0.00 0.00 0.00 65 1010.8
20260830211150 87 217 1.0 5.0 0.00 0.00 0.00 65 1010.8